Stations météo

réclame
Mon MeteoGroup
Moron de la Frontera, Espagne (8397): Température de l'air & dewpoint: 12.01.2020 14:00:00 - 18.01.2020 14:00:00 (CET)Moron de la Frontera, Espagne (8397): Vitesse du vent: 12.01.2020 14:00:00 - 18.01.2020 14:00:00 (CET)Moron de la Frontera, Espagne (8397): Direction du vent: 12.01.2020 14:00:00 - 18.01.2020 14:00:00 (CET)Moron de la Frontera, Espagne (8397): reduced air pressure: 12.01.2020 14:00:00 - 18.01.2020 14:00:00 (CET)Moron de la Frontera, Espagne (8397): visibility: 12.01.2020 14:00:00 - 18.01.2020 14:00:00 (CET)
Date & Time tt [°C] td [°C] ff [km/h] ff [knt] dd ppp [hPa] vv [km]
18.01.2020 14:00:00 - - - - - - -
18.01.2020 13:00:00 14,6 11,9 18 10 SW 1030,6 6
18.01.2020 12:00:00 - - - - - - -
18.01.2020 11:00:00 - - - - - - -
18.01.2020 10:00:00 9,5 7,3 4 2 ESE 1032,8 9
18.01.2020 09:00:00 - - - - - - -
18.01.2020 08:00:00 - - - - - - -
18.01.2020 07:00:00 8,8 6,8 2 1 SE 1030,6 20
18.01.2020 06:00:00 - - - - - - -
18.01.2020 05:00:00 - - - - - - -
18.01.2020 04:00:00 7,9 6,8 4 2 S 1031,7 10
18.01.2020 03:00:00 - - - - - - -
18.01.2020 02:00:00 - - - - - - -
18.01.2020 01:00:00 7,9 6,2 0 0 N 1032,8 10
18.01.2020 00:00:00 - - - - - - -
17.01.2020 23:00:00 - - - - - - -
17.01.2020 22:00:00 10,2 7,4 5 3 NNE 1033,3 7
17.01.2020 21:00:00 - - - - - - -
17.01.2020 20:00:00 - - - - - - -
17.01.2020 19:00:00 14,6 9,0 5 3 NE 1031,9 15
17.01.2020 18:00:00 - - - - - - -
17.01.2020 17:00:00 - - - - - - -
17.01.2020 16:00:00 17,4 10,5 2 1 E 1031,2 15
17.01.2020 15:00:00 - - - - - - -
17.01.2020 14:00:00 - - - - - - -
17.01.2020 13:00:00 15,2 8,4 5 3 ENE 1033,4 20
17.01.2020 12:00:00 - - - - - - -
17.01.2020 11:00:00 - - - - - - -
17.01.2020 10:00:00 11,3 6,4 4 2 N 1033,1 20
17.01.2020 09:00:00 - - - - - - -
17.01.2020 08:00:00 - - - - - - -
17.01.2020 07:00:00 11,3 5,2 9 5 SSW 1031,2 20
17.01.2020 06:00:00 - - - - - - -
17.01.2020 05:00:00 - - - - - - -
17.01.2020 04:00:00 7,4 2,5 5 3 S 1030,7 20
17.01.2020 03:00:00 - - - - - - -
17.01.2020 02:00:00 - - - - - - -
17.01.2020 01:00:00 10,5 6,1 8 4 SSW 1030,6 20
17.01.2020 00:00:00 - - - - - - -
16.01.2020 23:00:00 - - - - - - -
16.01.2020 22:00:00 9,5 4,9 8 4 SSW 1029,9 15
16.01.2020 21:00:00 - - - - - - -
16.01.2020 20:00:00 - - - - - - -
16.01.2020 19:00:00 14,1 3,8 0 0 N 1028,3 15
16.01.2020 18:00:00 - - - - - - -
16.01.2020 17:00:00 - - - - - - -
16.01.2020 16:00:00 18,7 3,3 8 4 WSW 1027,2 20
16.01.2020 15:00:00 - - - - - - -
16.01.2020 14:00:00 - - - - - - -
16.01.2020 13:00:00 15,3 3,8 4 2 N 1028,9 15
16.01.2020 12:00:00 - - - - - - -
16.01.2020 11:00:00 - - - - - - -
16.01.2020 10:00:00 5,9 3,6 4 2 NNE 1029,3 10
16.01.2020 09:00:00 - - - - - - -
16.01.2020 08:00:00 - - - - - - -
16.01.2020 07:00:00 4,2 1,4 4 2 NNE 1028,1 9
16.01.2020 06:00:00 - - - - - - -
16.01.2020 05:00:00 - - - - - - -
16.01.2020 04:00:00 5,7 2,4 8 4 SE 1028,1 20
16.01.2020 03:00:00 - - - - - - -
16.01.2020 02:00:00 - - - - - - -
16.01.2020 01:00:00 6,1 2,7 5 3 S 1028,7 20
16.01.2020 00:00:00 - - - - - - -
15.01.2020 23:00:00 - - - - - - -
15.01.2020 22:00:00 8,2 3,3 5 3 SSE 1028,3 15
15.01.2020 21:00:00 - - - - - - -
15.01.2020 20:00:00 - - - - - - -
15.01.2020 19:00:00 13,8 5,4 4 2 WSW 1027,5 20
15.01.2020 18:00:00 - - - - - - -
15.01.2020 17:00:00 - - - - - - -
15.01.2020 16:00:00 18,3 7,7 5 3 WSW 1026,1 20
15.01.2020 15:00:00 - - - - - - -
15.01.2020 14:00:00 - - - - - - -
15.01.2020 13:00:00 16,4 5,7 11 6 SW 1027,1 25
15.01.2020 12:00:00 - - - - - - -
15.01.2020 11:00:00 - - - - - - -
15.01.2020 10:00:00 6,1 4,3 5 3 E 1027,3 10
15.01.2020 09:00:00 - - - - - - -
15.01.2020 08:00:00 - - - - - - -
15.01.2020 07:00:00 4,6 2,6 8 4 S 1025,1 20
15.01.2020 06:00:00 - - - - - - -
15.01.2020 05:00:00 - - - - - - -
15.01.2020 04:00:00 5,6 3,3 4 2 SSE 1025,3 20
15.01.2020 03:00:00 - - - - - - -
15.01.2020 02:00:00 - - - - - - -
15.01.2020 01:00:00 6,3 3,5 4 2 SSE 1025,6 20
15.01.2020 00:00:00 - - - - - - -
14.01.2020 23:00:00 - - - - - - -
14.01.2020 22:00:00 7,5 3,9 5 3 S 1025,7 20
14.01.2020 21:00:00 - - - - - - -
14.01.2020 20:00:00 - - - - - - -
14.01.2020 19:00:00 12,8 4,8 0 0 N 1024,6 20
14.01.2020 18:00:00 - - - - - - -
14.01.2020 17:00:00 - - - - - - -
14.01.2020 16:00:00 16,2 5,5 4 2 W 1023,5 25
14.01.2020 15:00:00 - - - - - - -
14.01.2020 14:00:00 - - - - - - -
14.01.2020 13:00:00 13,9 6,0 2 1 WSW 1025,4 15
14.01.2020 12:00:00 - - - - - - -
14.01.2020 11:00:00 - - - - - - -
14.01.2020 10:00:00 6,4 4,4 0 0 N 1025,4 8
14.01.2020 09:00:00 - - - - - - -
14.01.2020 08:00:00 - - - - - - -
14.01.2020 07:00:00 5,1 3,4 4 2 SSE 1024,6 10
14.01.2020 06:00:00 - - - - - - -
14.01.2020 05:00:00 - - - - - - -
14.01.2020 04:00:00 4,0 2,2 2 1 E 1024,9 7
14.01.2020 03:00:00 - - - - - - -
14.01.2020 02:00:00 - - - - - - -
14.01.2020 01:00:00 5,7 2,9 0 0 N 1025,6 15
14.01.2020 00:00:00 - - - - - - -
13.01.2020 23:00:00 - - - - - - -
13.01.2020 22:00:00 7,8 3,7 5 3 SSE 1025,8 15
13.01.2020 21:00:00 - - - - - - -
13.01.2020 20:00:00 - - - - - - -
13.01.2020 19:00:00 12,1 3,3 5 3 NNW 1025,8 20
13.01.2020 18:00:00 - - - - - - -
13.01.2020 17:00:00 - - - - - - -
13.01.2020 16:00:00 15,4 3,9 2 1 NNE 1025,4 20
13.01.2020 15:00:00 - - - - - - -
13.01.2020 14:00:00 - - - - - - -
13.01.2020 13:00:00 12,1 4,3 8 4 NE 1028,2 15
13.01.2020 12:00:00 - - - - - - -
13.01.2020 11:00:00 - - - - - - -
13.01.2020 10:00:00 3,6 2,0 0 0 N 1028,5 10
13.01.2020 09:00:00 - - - - - - -
13.01.2020 08:00:00 - - - - - - -
13.01.2020 07:00:00 0,4 -1,2 5 3 SSE 1027,9 15
13.01.2020 06:00:00 - - - - - - -
13.01.2020 05:00:00 - - - - - - -
13.01.2020 04:00:00 1,9 -0,3 2 1 SE 1028,5 15
13.01.2020 03:00:00 - - - - - - -
13.01.2020 02:00:00 - - - - - - -
13.01.2020 01:00:00 3,7 0,6 0 0 N 1029,7 20
13.01.2020 00:00:00 - - - - - - -
12.01.2020 23:00:00 - - - - - - -
12.01.2020 22:00:00 5,5 0,3 4 2 SSE 1029,9 20
12.01.2020 21:00:00 - - - - - - -
12.01.2020 20:00:00 - - - - - - -
12.01.2020 19:00:00 11,8 1,2 5 3 NE 1029,4 25
12.01.2020 18:00:00 - - - - - - -
12.01.2020 17:00:00 - - - - - - -
12.01.2020 16:00:00 16,0 2,1 9 5 NE 1028,9 25
12.01.2020 15:00:00 - - - - - - -
12.01.2020 14:00:00 - - - - - - -

tt = Température de l'air
td = dewpoint
ff = Vitesse du vent
dd = Direction du vent
ppp = reduced air pressure
vv = visibility

stations d'obs. à proximité